www.pogodaiklimat.ru

Погода и климат >> Архив погоды >> Аргентина >> Trelew


ПОГОДА в Trelew

  • Прогноз погоды в Trelew
  • Монитор погоды в Trelew
  • Климат города

АРХИВ ПОГОДЫ в Trelew

Время (UTC), дата Ветер
(напр.,м/с)
 
Видим.   Явления Облачность Т
(С)
Тd
(С)
f
(%)
Тe
(С)
Тes
(С)
Комфортность P
(гПа)
Po
(гПа)
Тmin
(С)
Tmax
(С)
R
(мм)
R24
(мм)
S
(см)
03 13.07 З 2 30 км ясно +8.0 +1.1 62 +6 +6 1009.7 1004.5
06 13.07 С 2 30 км ясно +1.4 -1.7 80 -2 -2 1009.8 1004.6
09 13.07 З 3 30 км 4/0
[Ci fib]
+2.8 -2.3 69 -1 -1 1009.8 1004.6
12 13.07 СЗ 2 30 км 8/0 1000 м
[Ac As Cs]
+1.2 -2.0 79 -1 -1 1011.0 1005.7 +1.0 +9.0
15 13.07 З 1 30 км 9/0
[Ac As Cs]
+7.0 +1.6 68 +6 +8 1010.7 1005.4
18 13.07 З 1 30 км 8/1 1200 м
[Sc diur, vesp Ac trans Cs]
+12.8 +4.1 55 +13 +15 1008.7 1003.4
21 13.07 В 2 20 км дым 9/0 2000 м
[Ac As Cs]
+11.6 +5.1 64 +11 +11 1007.3 1002.1
00 14.07 В 2 30 км 8/3 1200 м
[Sc Ac As Cs]
+8.7 +3.1 68 +8 +8 1006.7 1001.4 +1.0 +14.4
03 14.07 С 2 10 км слабый дождь 10/3 900 м
[Sc As op]
+7.2 +4.0 80 +5 +5 1004.6 999.4
06 14.07 В 2 12 км слабый дождь 10/4 480 м
[Frnb As op]
+6.6 +6.2 97 +5 +5 1001.9 996.6 4
09 14.07 В 1 300 м туман {морось} ?/? +7.6 +7.6 100 +6 +6 997.8 992.6
12 14.07 З 3 15 км в посл. час морось {туман} 10/4 900 м
[Frnb As op]
+7.6 +7.6 100 +4 +4 998.9 993.7 +6.4 +8.7 2
15 14.07 З 3 30 км 8/4 900 м
[Sc diur, vesp Ac As]
+8.8 +7.5 92 +6 +7 1000.6 995.4
18 14.07 ЮЗ 5 20 км осадки на расстоянии 9/6 540 м
[Cu Sc As op]
+11.0 +6.8 75 +8 +9 1001.7 996.5
21 14.07 ЮВ 2 8000 м слабый дождь 10/6 450 м
[Frnb As op]
+7.0 +6.6 97 +5 +5 1005.3 1000.1
00 15.07 Ю 2 8000 м слабый дождь 10/5 450 м
[Frnb As op]
+6.2 +5.8 97 +4 +4 1009.1 1003.8 +6.0 +12.0 2
03 15.07 Ю 4 15 км дымка {дождь} 10/6 450 м
[Frnb As op]
+5.1 +3.4 89 +1 +1 1012.5 1007.2
06 15.07 ЮЗ 4 15 км в посл. час морось {дождь} 9/5 600 м
[Sc As op]
+4.0 +1.5 84 -1 -1 1015.1 1009.8 0.7
09 15.07 ЮЗ 4 30 км 10/3 540 м
[Frnb As op]
+3.6 +0.2 78 -1 -1 1017.7 1012.4
12 15.07 З 2 30 км 4/1 900 м
[Sc Ac As]
+1.0 -0.5 90 -3 -3 1020.8 1015.4 +0.7 +8.0 3
15 15.07 З 5 30 км 1/0
[Ac lent]
+3.8 -0.5 73 -1 +1 1022.6 1017.2
18 15.07 З 4 30 км 5/5 1050 м
[Cu Sc Ac lent]
+6.8 +0.2 63 +3 +4 1023.0 1017.6
21 15.07 З 3 30 км 5/5 1050 м
[Sc diur, vesp Ac cuf]
+6.8 +0.2 63 +4 +4 1024.1 1018.8
00 16.07 З 2 30 км 4/4 1050 м
[Sc diur, vesp]
+1.4 -0.6 87 -2 -2 1026.2 1020.8 +0.6 +7.8
03 16.07 СЗ 1 30 км 3/3 900 м
[Sc]
-2.0 -3.5 89 -4 -4 1027.5 1022.0
06 16.07 З 2 30 км 3/0
[Ac As]
-3.2 -4.9 88 -7 -7 1028.1 1022.6
09 16.07 СЗ 2 30 км 4/0
[Cs]
-4.0 -5.2 91 -8 -8 1027.7 1022.2
12 16.07 штиль 0 30 км 5/0
[Ac As Cs]
-3.2 -4.2 93 -4 -4 1028.5 1023.0 -4.5 +1.6
15 16.07 СВ 3 30 км 5/0
[Ac und Ci fib]
+4.6 +0.5 75 +1 +3 1028.3 1022.8
18 16.07 С 7 30 км 5/5 1050 м
[Sc Ac lent Ci fib]
+9.6 -1.1 47 +6 +7 1026.6 1021.2
21 16.07 С 3 30 км 5/3 1050 м
[Sc Ac lent Ci fib]
+8.2 +3.1 70 1026.6 1021.3
00 17.07 СВ 5 30 км 4/1 1050 м
[Sc Ac lent Ci fib]
+5.4 +2.5 82 +1 +1 1027.5 1022.0 -4.3 +10.2
03 17.07 С 5 30 км 6/4 1050 м
[Sc Ac lent]
+5.8 +2.9 82 +2 +2 1027.3 1022.0
06 17.07 С 2 30 км 5/4 1050 м
[Sc Ac und]
+4.8 +2.3 84 +2 +2 1027.1 1021.8
09 17.07 В 1 25 км слабая морось 8/4 1050 м
[Sc Ac cuf]
+3.6 +2.6 93 +2 +2 1026.5 1021.2
12 17.07 штиль 0 20 км в посл. час морось 10/4 450 м
[Sc Ac As]
+3.8 +3.3 97 +3 +3 1026.5 1021.2 +3.3 +6.4 0.7
15 17.07 штиль 0 30 км 10/5 480 м
[St Ac As Cs]
+5.4 +4.2 92 +4 +6 1026.6 1021.2
18 17.07 штиль 0 30 км 10/8 900 м
[Cu Sc Ac As]
+8.1 +5.7 85 +7 +8 1025.0 1019.7
21 17.07 штиль 0 2500 м слабый дождь {морось} 10/8 900 м
[Cu Sc As op]
+7.4 +6.5 94 +6 +6 1025.9 1020.5
00 18.07 штиль 0 3000 м слабая морось {дождь} 10/8 600 м
[Cu Sc As op]
+6.4 +5.5 94 +5 +5 1027.1 1021.7 +3.6 +8.2 54
03 18.07 В 2 30 км {морось} 10/6 600 м
[Cu Sc As op]
+6.2 +5.8 97 +4 +4 1027.3 1022.0
06 18.07 ЮВ 1 30 км {морось} 10/4 1050 м
[Sc Ac As Cs]
+6.0 +5.6 97 +5 +5 1028.0 1022.6 4
09 18.07 Ю 1 30 км 10/4 1050 м
[Sc Ac As Cs]
+5.8 +5.3 97 +4 +4 1028.2 1022.8
12 18.07 Ю 3 800 м 8/4 750 м
[Sc Ac As Ci sp]
+5.9 +5.2 95 +2 +2 1028.6 1023.2 +5.0 +6.6 6
15 18.07 Ю 3 30 км 9/6 600 м
[St Ac und Cs]
+7.6 +6.7 94 +5 +5 1029.6 1024.2
18 18.07 В 5 7000 м слабая морось {ливн. осадки, дождь} 10/8 400 м
[St As op]
+7.6 +7.2 97 +3 +4 1029.2 1023.8 0.7
21 18.07 В 4 30 км {дождь} 10/10 420 м
[Frnb]
+7.4 +5.6 88 +4 +4 1029.8 1024.4
00 19.07 В 4 30 км {дождь} 9/5 900 м
[Cu Sc Ac As]
+7.0 +5.2 88 +3 +3 1031.4 1026.0 +5.6 +8.4 0.2
03 19.07 ЮВ 8 10 км в посл. час дождь 10/6 600 м
[Sc As op]
+7.2 +4.5 83 +2 +2 1032.0 1026.6
06 19.07 ЮВ 9 30 км {дождь} 10/6 600 м
[Sc As op]
+7.2 +4.0 80 +2 +2 1032.5 1027.2 2
09 19.07 ЮВ 7 8000 м слабый дождь 10/6 750 м
[Sc As op]
+7.0 +4.2 82 +2 +2 1032.1 1026.8
12 19.07 ЮВ 7 6000 м слабая морось {дождь} 10/6 540 м
[Frnb As op]
+6.0 +4.6 91 +1 +1 1033.1 1027.7 +6.0 +8.0 0.2
15 19.07 ЮВ 8 10 км осадки на расстоянии {морось} 10/6 540 м
[Frnb As op]
+6.6 +5.7 94 +1 +1 1033.2 1027.8
18 19.07 ЮВ 8 10 км слабая морось 10/6 540 м
[Frnb As op]
+6.5 +2.4 75 +1 +2 1032.0 1026.6 0.0

 

Местоположение метеостанции Trelew (Аргентина): широта -43.20 долгота -65.26 высота над уровнем моря 43 м.

В архиве по умолчанию представлена погода в Trelew за последнюю неделю. Архивные данные за месяц целиком и за предыдущие месяцы, начиная с января 2011 года, Вы можете получить, выбрав интересующий диапазон дат из раскрывающегося списка и нажав кнопку "Ввод!".


*Определитесь, кто Вы:
робот инопланетянин человек

Внимание! Время в таблицах - всемирное. Для получения местного времени необходимо прибавить поправку, которая в Trelew равна -3 ч.

Смотрите также архив погоды в соседних городах и на ближайших метеорологических станциях:

Погода в San Antonio Oeste (Аргентина) (270 км)
Погода в Viedma (Аргентина) (321 км)
Погода в Comodoro Rivadavia (Аргентина) (338 км)
Погода в Maquinchao (Аргентина) (359 км)
Погода в Esquel (Аргентина) (479 км)
Погода в Alto Palena (Чили) (529 км)
Погода в Neuquen (Аргентина) (530 км)
Погода в El Bolson (Аргентина) (530 км)
Погода в Futaleufu (Чили) (531 км)
Погода в San Carlos de Bariloche (Аргентина) (537 км)

Пояснения к столбцам:

Ветер - указаны скорость ветра в м/с - средняя за 10 мин, порывы в срок и между сроками (в фигурных скобках) и направление, откуда дует ветер: С - северный, СВ - северо-восточный, В - восточный, ЮВ - юго-восточный, Ю - южный, ЮЗ - юго-западный, З - западный, СЗ - северо-западный.
Видимость - горизонтальная дальность видимости в метрах или километрах. При видимости от 1 до 10 км при отсутствии осадков обычно наблюдается дымка, при ухудшении видимости до 1 км и менее - туман. В сухую погоду видимость может ухудшаться дымом, пылью или мглою.
Явления - указаны атмосферные явления, наблюдавшиеся в срок или в последний час перед сроком; фигурными скобками обозначены явления, наблюдавшиеся между сроками (за 1-3 часа до срока); квадратными скобками обозначены град или гололедные отложения с указанием их диаметра в мм.
Облачность - указаны через наклонную черту общая и нижняя облачность в баллах и высота нижней границы облаков в метрах; квадратными скобками обозначены формы облаков: Ci - перистые, Cs - перисто-слоистые, Cc - перисто-кучевые, Ac - высококучевые, As - высокослоистые, Sc - слоисто-кучевые, Ns - слоисто-дождевые, Cu - кучевые, Cb - кучево-дождевые. Подробнее классификацию облаков см. в Атласе облаков (PDF).
T - Температура воздуха - температура, измеренная на высоте 2 м над землей.
Td - Температура точки росы - температура, при понижении до которой содержащийся в воздухе водяной пар достигнет насыщения.
f - Относительная влажность воздуха - влажноcть воздуха, измеренная на высоте 2 м над землей.
Te - Эффективная температура - температура, которую ощущает одетый по сезону человек в тени. Характеристика душности погоды. При расчете учитывается влияние влажности воздуха и скорости ветра на теплоощущения человека.
Tes - Эффективная температура на солнце - температура, которую ощущает человек, с поправкой на солнечный нагрев. Характеристика знойности погоды. Зависит от высоты солнца над горизонтом, облачности и скорости ветра. Ночью, в пасмурную погоду, а также при ветре 12 м/с и более поправка равна нулю.
P - Атмосферное давление - приведенное к уровню моря атмосферное давление.
Po - Атмосферное давление - измеренное на уровне метеостанции атмосферное давление.
Tmin - Минимальная температура - минимум температуры воздуха на высоте 2 м над землей.
Tmax - Максимальная температура - максимум температуры воздуха на высоте 2 м над землей.
R - Количество осадков - Количество выпавших осадков за период времени, мм. При наведении курсора мыши на число - период времени, за который выпало указанное количество осадков.
R24 - Количество осадков - Количество выпавших осадков за 24 часа, мм.
S - Снежный покров - Высота снежного покрова, см. При наведении курсора мыши на число - состояние снежного покрова и степень покрытия местности в баллах.